Página principal
METAR-TAF:

METAR-TAF

Aeroportos :

El Borma, Tunísia

latitude: 31-41N, longitude: 009-10E, altura: 258 m

Observação actual do tempo

O boletim foi feito há 2 horas e 11 minutos, às 15:00 UTC
Vento 7 kt de nordeste, variando entre oes-noroeste e este
Temperatura 33°C
Humidade 23%
Pressão 1018 hPa
Visibilidade 10 km ou mais
Poucas nuvensa uma altura de 3300 ft

METAR: DTTR 181500Z 04007KT 290V080 9999 FEW033 33/09 Q1018

Hora: 18:11 (17:11 UTC)


TAF: em falta

Observações e previsões do tempo de mais de 4000 aeroportos (mensagens METAR e TAF).

As estações disponíveis são os pontos amarelos e vermelhos sobre o mapa.

Mova o rato sobre o mapa para ver o nome da estação.

Depois clique no ponto para visualizar as observações e previsões meteorológicas.

Para alterar o mapa : clique nos botões verdes com uma cruz preta para aumentar o zoom; no botão verde com uma pitada de zoom; ou nas setas verdes para mapas adjacentes.


METAR-TAF: